Date String (YYYY-MM-DD hh:mm:ss) UTC,Instrument flags,absolute air pressure of the measurement (hPa),sample flow rate (lpm),inlet stack bypass flow (lpm),air temperature of the measurement (°C),ambient temperature measured by the external sensor (°C),aerosol sample conditioner tube jacket temperature (°C),OPC LED temperature (°C),internal box temperature (°C),relative humidity of the measurement (%),span deviation,mass concentration of particles derived from Lorenz-Mie calculation of OPC scattering (μg/m³),mass concentration of particles derived from Lorenz-Mie calculation of OPC scattering (μg/m³),mass concentration of particles derived from Lorenz-Mie calculation of OPC scattering (μg/m³)
DateTimeUTC,F1_M11,P_M11,Q1_M11,Q2_M11,T1_M11,T2_M11,T3_M11,T4_M11,T5_M11,U1_M11,ZSPAN_M11,X0_M11,X2_M11,X1_M11
2024-03-23 22:00:00,SystemResetWarning,0817.7,4.98,000.00,024.6,023.8,000.0,033.1,026.4,17.8,0002.9,0020.94,0008.06,0006.31
2024-03-23 22:01:00,SystemResetWarning,0817.7,5.00,000.00,024.6,023.8,000.0,033.1,026.4,17.6,0003.4,0019.56,0008.05,0006.29
2024-03-23 22:02:00,SystemResetWarning,0817.8,5.01,000.00,024.6,023.9,000.0,033.1,026.4,17.4,0004.7,0019.09,0007.99,0006.25
2024-03-23 22:03:00,SystemResetWarning,0817.8,5.00,000.00,024.6,023.9,000.0,033.1,026.4,17.5,0004.6,0018.60,0007.89,0006.20
2024-03-23 22:04:00,SystemResetWarning,0817.7,4.99,000.00,024.6,023.9,000.0,033.1,026.5,17.4,0004.4,0018.48,0007.83,0006.19
2024-03-23 22:05:00,SystemResetWarning,0817.8,4.99,000.00,024.6,023.9,000.0,033.1,026.5,17.5,0004.5,0018.27,0007.77,0006.16
2024-03-23 22:06:00,SystemResetWarning,0817.8,5.00,000.00,024.6,023.9,000.0,033.1,026.5,17.4,0005.3,0018.60,0007.75,0006.13
2024-03-23 22:07:00,SystemResetWarning,0817.8,5.00,000.00,024.6,024.0,000.0,033.1,026.5,17.0,0005.1,0019.87,0007.72,0006.09
2024-03-23 22:08:00,SystemResetWarning,0817.8,5.01,000.00,024.7,024.0,000.0,033.1,026.5,16.9,0005.1,0020.74,0007.62,0006.03
2024-03-23 22:09:00,SystemResetWarning,0817.8,5.00,000.00,024.7,024.0,000.0,033.1,026.5,17.0,0005.4,0020.75,0007.53,0005.97
2024-03-23 22:10:00,SystemResetWarning,0817.8,4.98,000.00,024.7,024.0,000.0,033.1,026.5,17.2,0005.3,0019.08,0007.49,0005.92
2024-03-23 22:11:00,SystemResetWarning,0817.8,5.00,000.00,024.7,024.0,000.0,033.1,026.6,17.6,0004.8,0019.86,0007.41,0005.89
2024-03-23 22:12:00,SystemResetWarning,0817.8,5.01,000.00,024.7,024.0,000.0,033.1,026.6,17.1,0004.6,0020.14,0007.33,0005.84
2024-03-23 22:13:00,SystemResetWarning,0817.7,5.01,000.00,024.7,023.9,000.0,033.2,026.6,17.2,0004.0,0020.39,0007.26,0005.81
2024-03-23 22:14:00,SystemResetWarning,0817.8,5.01,000.00,024.7,023.9,000.0,033.2,026.5,17.4,0004.6,0020.86,0007.25,0005.80
2024-03-23 22:15:00,SystemResetWarning,0817.7,4.99,000.00,024.7,023.9,000.0,033.2,026.5,17.3,0005.2,0021.26,0007.17,0005.76
2024-03-23 22:16:00,SystemResetWarning,0817.7,5.00,000.00,024.7,023.9,000.0,033.2,026.5,17.2,0005.5,0021.39,0007.16,0005.74
2024-03-23 22:17:00,SystemResetWarning,0817.6,5.00,000.00,024.7,023.9,000.0,033.2,026.5,16.9,0004.0,0021.78,0007.15,0005.73
2024-03-23 22:18:00,SystemResetWarning,0817.6,4.99,000.00,024.7,023.9,000.0,033.2,026.5,17.0,0002.2,0021.55,0007.13,0005.73
2024-03-23 22:19:00,SystemResetWarning,0817.6,5.00,000.00,024.7,023.9,000.0,033.2,026.5,16.4,0001.3,0020.58,0007.17,0005.76
2024-03-23 22:20:00,SystemResetWarning,0817.6,5.00,000.00,024.7,023.8,000.0,033.2,026.5,16.8,0000.2,0021.33,0007.28,0005.78
2024-03-23 22:21:00,SystemResetWarning,0817.6,5.00,000.00,024.7,023.8,000.0,033.2,026.5,16.8,0000.6,0022.58,0007.32,0005.78
2024-03-23 22:22:00,SystemResetWarning,0817.6,5.01,000.00,024.7,023.8,000.0,033.2,026.5,16.3,0002.0,0022.98,0007.27,0005.76
2024-03-23 22:23:00,SystemResetWarning,0817.5,5.00,000.00,024.7,023.8,000.0,033.2,026.5,16.1,0002.2,0022.92,0007.21,0005.74
2024-03-23 22:24:00,SystemResetWarning,0817.5,4.99,000.00,024.7,023.8,000.0,033.2,026.5,15.9,0001.5,0022.87,0007.19,0005.69
2024-03-23 22:25:00,SystemResetWarning,0817.5,5.00,000.00,024.7,023.9,000.0,033.2,026.5,16.0,0000.3,0022.51,0007.12,0005.64
2024-03-23 22:26:00,SystemResetWarning,0817.4,4.99,000.00,024.7,023.9,000.0,033.2,026.5,16.3,-000.4,0021.61,0007.15,0005.60
2024-03-23 22:27:00,SystemResetWarning,0817.5,5.01,000.00,024.7,023.9,000.0,033.2,026.6,16.3,0000.8,0021.15,0007.14,0005.56
2024-03-23 22:28:00,SystemResetWarning,0817.4,5.01,000.00,024.7,024.0,000.0,033.2,026.6,16.3,0001.3,0020.57,0007.07,0005.52
2024-03-23 22:29:00,SystemResetWarning,0817.4,5.00,000.00,024.7,024.0,000.0,033.2,026.6,16.3,0001.8,0020.21,0006.98,0005.45
2024-03-23 22:30:00,SystemResetWarning,0817.4,4.99,000.00,024.7,024.0,000.0,033.2,026.6,16.6,0003.6,0020.38,0006.92,0005.39
2024-03-23 22:31:00,SystemResetWarning,0817.4,4.99,000.00,024.7,024.0,000.0,033.2,026.6,15.4,0003.3,0019.60,0006.73,0005.30
2024-03-23 22:32:00,SystemResetWarning,0817.3,4.99,000.00,024.7,024.0,000.0,033.2,026.6,14.8,0002.2,0019.04,0006.47,0005.11
2024-03-23 22:33:00,SystemResetWarning,0817.3,5.00,000.00,024.7,024.0,000.0,033.2,026.6,14.7,0003.0,0017.30,0006.25,0004.93
2024-03-23 22:34:00,SystemResetWarning,0817.3,5.00,000.00,024.7,024.0,000.0,033.2,026.6,14.7,0001.2,0017.43,0006.08,0004.77
2024-03-23 22:35:00,SystemResetWarning,0817.2,5.00,000.00,024.8,024.0,000.0,033.3,026.6,14.8,0001.2,0016.86,0005.91,0004.65
2024-03-23 22:36:00,SystemResetWarning,0817.2,5.01,000.00,024.8,024.0,000.0,033.3,026.6,15.1,0002.1,0016.42,0005.76,0004.54
2024-03-23 22:37:00,SystemResetWarning,0817.2,5.00,000.00,024.8,024.0,000.0,033.3,026.6,15.3,0003.2,0016.21,0005.62,0004.43
2024-03-23 22:38:00,SystemResetWarning,0817.2,5.00,000.00,024.8,024.0,000.0,033.3,026.6,15.3,0000.0,0016.42,0005.43,0004.31
2024-03-23 22:39:00,SystemResetWarning,0817.2,4.99,000.00,024.8,024.0,000.0,033.3,026.6,15.2,0000.0,0016.27,0005.34,0004.19
2024-03-23 22:40:00,SystemResetWarning,0817.2,5.00,000.00,024.8,024.0,000.0,033.3,026.6,15.3,0000.0,0015.86,0005.27,0004.12
2024-03-23 22:41:00,SystemResetWarning,0817.2,5.00,000.00,024.8,024.0,000.0,033.3,026.6,15.2,0000.0,0015.80,0005.14,0004.02
2024-03-23 22:42:00,SystemResetWarning,0817.2,5.00,000.00,024.8,024.0,000.0,033.3,026.6,15.2,0000.0,0015.53,0005.07,0003.92
2024-03-23 22:43:00,SystemResetWarning,0817.2,4.99,000.00,024.8,024.1,000.0,033.3,026.7,15.3,0000.0,0015.08,0005.07,0003.93
2024-03-23 22:44:00,SystemResetWarning,0817.2,5.00,000.00,024.8,024.1,000.0,033.3,026.7,15.5,0000.0,0014.90,0005.14,0003.98
2024-03-23 22:45:00,SystemResetWarning,0817.1,5.00,000.00,024.8,024.1,000.0,033.3,026.7,15.6,0000.0,0014.36,0005.20,0004.01
2024-03-23 22:46:00,SystemResetWarning,0817.1,5.00,000.00,024.8,024.1,000.0,033.3,026.7,14.6,0000.0,0013.84,0005.10,0003.96
2024-03-23 22:47:00,SystemResetWarning,0816.9,5.00,000.00,024.8,024.1,000.0,033.3,026.7,14.2,0000.0,0013.96,0004.90,0003.81
2024-03-23 22:48:00,SystemResetWarning,0816.9,5.00,000.00,024.9,024.2,000.0,033.3,026.7,14.0,0000.0,0013.50,0004.67,0003.65
2024-03-23 22:49:00,SystemResetWarning,0816.9,5.00,000.00,024.9,024.2,000.0,033.3,026.7,14.1,0000.0,0012.71,0004.46,0003.48
2024-03-23 22:50:00,SystemResetWarning,0816.9,5.01,000.00,024.9,024.2,000.0,033.3,026.7,13.8,0000.0,0012.49,0004.19,0003.31
2024-03-23 22:51:00,SystemResetWarning,0816.8,5.00,000.00,024.9,024.2,000.0,033.4,026.7,13.9,0000.0,0011.79,0003.92,0003.11
2024-03-23 22:52:00,SystemResetWarning,0816.8,5.00,000.00,024.9,024.2,000.0,033.3,026.7,13.7,0000.0,0010.57,0003.71,0002.80
2024-03-23 22:53:00,SystemResetWarning,0816.8,5.00,000.00,024.9,024.1,000.0,033.3,026.7,13.6,0000.0,0009.98,0003.48,0002.49
2024-03-23 22:54:00,SystemResetWarning,0816.7,5.01,000.00,024.8,024.1,000.0,033.3,026.7,13.6,0000.0,0009.56,0003.29,0002.19
2024-03-23 22:55:00,SystemResetWarning,0816.7,5.00,000.00,024.8,024.1,000.0,033.4,026.7,13.9,0000.0,0009.15,0003.04,0001.84
2024-03-23 22:56:00,SystemResetWarning,0816.7,5.00,000.00,024.8,024.1,000.0,033.4,026.7,13.5,0000.0,0008.67,0002.69,0001.53
2024-03-23 22:57:00,SystemResetWarning,0816.6,5.00,000.00,024.8,024.1,000.0,033.4,026.7,13.4,0000.0,0008.19,0002.51,0001.40
2024-03-23 22:58:00,SystemResetWarning,0816.6,5.00,000.00,024.8,024.1,000.0,033.4,026.7,13.6,0000.0,0007.71,0002.52,0001.40
2024-03-23 22:59:00,SystemResetWarning,0816.6,5.00,000.00,024.8,024.1,000.0,033.4,026.7,13.6,0000.0,0007.81,0002.52,0001.42
